{"data":{"norad_id":55374,"epoch":"2026-05-25T00:31:12.201600Z","epoch_age_seconds":63250,"freshness":"FRESH","line1":"1 55374U 23013AV  26145.02166900 -.00001324  00000+0 -38567-4 0  9999","line2":"2 55374  43.0015 250.7544 0002052 285.7813  74.2813 15.27583302183136","mean_motion":15.27583302,"eccentricity":0.0002052,"inclination_deg":43.0015,"raan_deg":250.7544,"arg_perigee_deg":285.7813,"mean_anomaly_deg":74.2813,"bstar":-3.8567e-5,"rev_number":18313,"period_min":94.266544948133,"perigee_km":481.63129532355,"apogee_km":484.4471220396,"semimajor_km":6861.1762086816,"source":"CELESTRAK","updated_at":"2026-05-25T13:38:17.768909Z"}}